Hourly Weather Lukanowice

Today, 7 May, Friday

Time Temperature Precipitation Wind Pressure Humidity
00:00 +7°C° 0 mm 2 mps 738 mmHg 73%
01:00 +8°C° 0 mm 2 mps 737 mmHg 71%
02:00 +8°C° 0.2 mm 2 mps 737 mmHg 76%
03:00 +7°C° 0.2 mm 3 mps 737 mmHg 82%
04:00 +7°C° 0.2 mm 3 mps 736 mmHg 87%
05:00 +8°C° 0 mm 3 mps 736 mmHg 85%
06:00 +8°C° 0 mm 3 mps 736 mmHg 84%
07:00 +9°C° 0 mm 3 mps 736 mmHg 82%
08:00 +10°C° 0 mm 3 mps 736 mmHg 79%
09:00 +11°C° 0 mm 4 mps 736 mmHg 76%
10:00 +11°C° 0 mm 4 mps 736 mmHg 73%
11:00 +12°C° 0.2 mm 4 mps 736 mmHg 72%
12:00 +13°C° 0.2 mm 5 mps 736 mmHg 70%
13:00 +13°C° 0.2 mm 6 mps 736 mmHg 68%
14:00 +13°C° 0.2 mm 6 mps 737 mmHg 70%
15:00 +11°C° 0.2 mm 6 mps 737 mmHg 72%
16:00 +11°C° 0.2 mm 6 mps 737 mmHg 74%
17:00 +9°C° 0.1 mm 6 mps 738 mmHg 76%
18:00 +8°C° 0.1 mm 7 mps 739 mmHg 78%
19:00 +5°C° 0.1 mm 7 mps 740 mmHg 80%
20:00 +4°C° 0 mm 7 mps 741 mmHg 80%
21:00 +3°C° 0 mm 6 mps 741 mmHg 80%
22:00 +3°C° 0 mm 6 mps 742 mmHg 79%
23:00 +2°C° 0 mm 6 mps 743 mmHg 81%

Tomorrow, 8 May, Saturday

Time Temperature Precipitation Wind Pressure Humidity
00:00 +2°C° 0 mm 5 mps 743 mmHg 83%
01:00 +2°C° 0 mm 5 mps 744 mmHg 84%
02:00 +1°C° 0 mm 5 mps 744 mmHg 85%
03:00 +1°C° 0 mm 5 mps 744 mmHg 86%
04:00 +1°C° 0 mm 5 mps 745 mmHg 87%
05:00 +2°C° 0 mm 6 mps 745 mmHg 82%
06:00 +2°C° 0 mm 6 mps 746 mmHg 78%
07:00 +3°C° 0 mm 6 mps 746 mmHg 73%
08:00 +4°C° 0 mm 6 mps 747 mmHg 68%
09:00 +6°C° 0 mm 5 mps 747 mmHg 64%
10:00 +7°C° 0 mm 5 mps 747 mmHg 60%
11:00 +8°C° 0.1 mm 5 mps 747 mmHg 57%
12:00 +9°C° 0.1 mm 5 mps 747 mmHg 54%
13:00 +10°C° 0.1 mm 5 mps 747 mmHg 51%
14:00 +10°C° 0 mm 5 mps 747 mmHg 50%
15:00 +12°C° 0 mm 4 mps 747 mmHg 50%
16:00 +12°C° 0 mm 4 mps 747 mmHg 50%
17:00 +10°C° 0 mm 3 mps 747 mmHg 57%
18:00 +8°C° 0 mm 2 mps 747 mmHg 64%
19:00 +7°C° 0 mm 0 mps 747 mmHg 72%
20:00 +7°C° 0 mm 1 mps 748 mmHg 73%
21:00 +6°C° 0 mm 1 mps 748 mmHg 74%
22:00 +5°C° 0 mm 2 mps 748 mmHg 75%
23:00 +5°C° 0 mm 2 mps 748 mmHg 75%

Day after tomorrow, 9 May, Sunday

Time Temperature Precipitation Wind Pressure Humidity
00:00 +4°C° 0 mm 2 mps 749 mmHg 74%
01:00 +4°C° 0 mm 2 mps 749 mmHg 74%
02:00 +4°C° 0 mm 2 mps 749 mmHg 75%
03:00 +4°C° 0 mm 2 mps 749 mmHg 76%
04:00 +3°C° 0 mm 2 mps 748 mmHg 78%
05:00 +4°C° 0 mm 3 mps 748 mmHg 74%
06:00 +7°C° 0 mm 3 mps 748 mmHg 69%
07:00 +10°C° 0 mm 3 mps 748 mmHg 65%
08:00 +12°C° 0 mm 4 mps 748 mmHg 60%
09:00 +13°C° 0 mm 4 mps 748 mmHg 54%
10:00 +15°C° 0 mm 4 mps 748 mmHg 48%
11:00 +17°C° 0 mm 4 mps 748 mmHg 46%
12:00 +18°C° 0 mm 4 mps 747 mmHg 45%
13:00 +20°C° 0 mm 4 mps 747 mmHg 43%
14:00 +20°C° 0 mm 4 mps 747 mmHg 46%
15:00 +20°C° 0 mm 4 mps 746 mmHg 50%
16:00 +19°C° 0 mm 4 mps 746 mmHg 54%
17:00 +17°C° 0 mm 5 mps 746 mmHg 57%
18:00 +15°C° 0 mm 5 mps 746 mmHg 60%
19:00 +13°C° 0 mm 5 mps 746 mmHg 63%
20:00 +12°C° 0 mm 5 mps 746 mmHg 65%
21:00 +11°C° 0 mm 4 mps 746 mmHg 66%
22:00 +11°C° 0 mm 4 mps 746 mmHg 68%
23:00 +10°C° 0 mm 4 mps 746 mmHg 70%

10 May, Monday

Time Temperature Precipitation Wind Pressure Humidity
00:00 +8°C° 0 mm 4 mps 746 mmHg 73%
01:00 +8°C° 0 mm 4 mps 745 mmHg 75%
02:00 +7°C° 0 mm 4 mps 745 mmHg 75%
03:00 +7°C° 0 mm 4 mps 745 mmHg 75%
04:00 +7°C° 0 mm 4 mps 745 mmHg 75%
05:00 +10°C° 0 mm 4 mps 745 mmHg 71%
06:00 +12°C° 0 mm 5 mps 745 mmHg 67%
07:00 +14°C° 0 mm 6 mps 745 mmHg 63%
08:00 +16°C° 0 mm 6 mps 745 mmHg 59%
09:00 +17°C° 0 mm 6 mps 745 mmHg 56%
10:00 +20°C° 0 mm 7 mps 744 mmHg 52%
11:00 +21°C° 0 mm 6 mps 744 mmHg 51%
12:00 +22°C° 0 mm 6 mps 744 mmHg 51%
13:00 +23°C° 0 mm 6 mps 744 mmHg 50%
14:00 +23°C° 0 mm 6 mps 744 mmHg 53%
15:00 +22°C° 0 mm 6 mps 744 mmHg 56%
16:00 +22°C° 0 mm 6 mps 744 mmHg 59%
17:00 +20°C° 0 mm 6 mps 744 mmHg 62%
18:00 +19°C° 0 mm 5 mps 744 mmHg 66%
19:00 +16°C° 0 mm 5 mps 744 mmHg 70%
20:00 +15°C° 0 mm 4 mps 744 mmHg 73%
21:00 +14°C° 0 mm 4 mps 744 mmHg 77%
22:00 +13°C° 0 mm 3 mps 744 mmHg 81%
23:00 +13°C° 0 mm 3 mps 744 mmHg 83%

11 May, Tuesday

Time Temperature Precipitation Wind Pressure Humidity
00:00 +12°C° 0 mm 3 mps 744 mmHg 86%
01:00 +12°C° 0 mm 3 mps 744 mmHg 89%
02:00 +11°C° 0 mm 3 mps 744 mmHg 88%
03:00 +11°C° 0 mm 4 mps 743 mmHg 88%
04:00 +11°C° 0 mm 4 mps 743 mmHg 87%
05:00 +13°C° 0 mm 4 mps 743 mmHg 81%
06:00 +15°C° 0 mm 5 mps 743 mmHg 75%
07:00 +17°C° 0 mm 5 mps 743 mmHg 69%
08:00 +20°C° 0 mm 5 mps 743 mmHg 64%
09:00 +21°C° 0 mm 6 mps 743 mmHg 59%
10:00 +23°C° 0 mm 6 mps 743 mmHg 54%
11:00 +24°C° 0 mm 6 mps 742 mmHg 53%
12:00 +26°C° 0 mm 5 mps 742 mmHg 51%
13:00 +27°C° 0 mm 5 mps 742 mmHg 49%
14:00 +26°C° 0 mm 5 mps 742 mmHg 53%
15:00 +26°C° 0 mm 6 mps 741 mmHg 56%
16:00 +24°C° 0 mm 6 mps 741 mmHg 59%
17:00 +22°C° 0 mm 5 mps 741 mmHg 64%
18:00 +20°C° 0 mm 5 mps 741 mmHg 70%
19:00 +19°C° 0 mm 5 mps 740 mmHg 75%
20:00 +17°C° 0 mm 5 mps 740 mmHg 78%
21:00 +17°C° 0 mm 4 mps 740 mmHg 81%
22:00 +15°C° 0 mm 4 mps 740 mmHg 85%
23:00 +14°C° 0 mm 4 mps 740 mmHg 86%

12 May, Wednesday

Time Temperature Precipitation Wind Pressure Humidity
00:00 +13°C° 0 mm 4 mps 739 mmHg 88%
01:00 +13°C° 0 mm 3 mps 739 mmHg 89%
02:00 +13°C° 0 mm 3 mps 739 mmHg 89%
03:00 +12°C° 0 mm 3 mps 739 mmHg 89%
04:00 +12°C° 0 mm 3 mps 739 mmHg 89%
05:00 +14°C° 0 mm 4 mps 738 mmHg 84%
06:00 +15°C° 0 mm 4 mps 738 mmHg 79%
07:00 +18°C° 0 mm 4 mps 738 mmHg 74%
08:00 +19°C° 0 mm 5 mps 738 mmHg 67%
09:00 +21°C° 0 mm 6 mps 737 mmHg 61%
10:00 +23°C° 0 mm 6 mps 737 mmHg 54%
11:00 +23°C° 0 mm 6 mps 737 mmHg 53%
12:00 +24°C° 0 mm 6 mps 737 mmHg 51%
13:00 +26°C° 0 mm 6 mps 736 mmHg 49%
14:00 +24°C° 0 mm 6 mps 736 mmHg 53%
15:00 +23°C° 0 mm 6 mps 735 mmHg 57%
16:00 +23°C° 0 mm 6 mps 735 mmHg 61%
17:00 +21°C° 0 mm 6 mps 734 mmHg 66%
18:00 +20°C° 0 mm 6 mps 734 mmHg 72%
19:00 +17°C° 0 mm 6 mps 734 mmHg 78%
20:00 +16°C° 0 mm 6 mps 734 mmHg 80%
21:00 +15°C° 0 mm 5 mps 733 mmHg 82%
22:00 +14°C° 0 mm 5 mps 733 mmHg 85%
23:00 +13°C° 0 mm 4 mps 733 mmHg 87%
Show more

We Need Your Consent

Meteoprog and our Service Providers may store and access personal data such as cookies, device identifiers or other similar technologies on your device and process such data to personalise content and ads, as well as provide social media features and to analyse the traffic.

  • Store and/or access information on your device

    Cookies, device identifiers or other information can be stored or accessed on your device for the purposes indicated above.

  • Personalised ads and content, ad and content measurement, audience insights, and products development

    Ads and content can be personalised based on a profile. More data can be added to better personalise ads and content. Ad and content performance can be measured. Insights about the audience who saw the ads and content can be derived. Such data can be used to develop or improve user’s experience, systems and software.

By clicking ‘I Agree’ you will allow the use of indicated cookies, device identifiers, web beacons or other similar technologies. Your settings can be changed in the browser on your device.

For certain purposes, legitimate interests may be relied on, rather than consent. You can read more about this in our Privacy and Cookie Policy.